Location: Hawks Ness
(60.2333°N, 1.1667°W)
Time: 06:29:49
(UTC+00:00)

Cosmos 1726 - Pass Details

Date: 31 January 2020
Orbit: 483 x 499 km, 82.5° (Epoch: 27 February)

Event Time Altitude Azimuth Distance (km) Brightness Sun altitude
Exits shadow 05:45:33 21° 345° (NNW) 1,139 3.7 -19.2°
Drops below altitude 10° 05:47:07 10° 1° (N) 1,682 4.8 -19.0°
Sets 05:49:22 0° 11° (NNE) 2,567 5.8 -18.7°
